Regional Weather Roundup
Issued by NWS

Home | Current Version | Previous Version | Graphics & Text | Print | Product List | Glossary Off
Versions: 1 2 3 4 5 6 7 8 9 10 11 12 13 14 15 16 17 18 19 20 21 22 23 24 25 26 27 28 29 30 31 32 33 34 35 36 37 38 39 40 41 42 43 44 45 46 47 48 49 50

000
ASUS43 KMPX 282210
RWRMN
WEATHER ROUNDUP FOR MINNESOTA
NATIONAL WEATHER SERVICE TWIN CITIES/CHANHASSEN MN
500 PM CDT SAT MAY 28 2016


NOTE: "FAIR" INDICATES FEW OR NO CLOUDS BELOW 12,000 FEET WITH NO
SIGNIFICANT WEATHER AND/OR OBSTRUCTIONS TO VISIBILITY. N/A MEANS
CURRENT SKY AND/OR WEATHER CONDITIONS ARE NOT AVAILABLE.

MNZ060>063-068>070-282300-
   Twin Cities Metro

CITY           SKY/WX    TMP DP  RH WIND       PRES   REMARKS
TWIN CITIES    PTSUNNY   65  60  84 N7        29.77S
ST PAUL        LGT RAIN  64  61  90 NW6       29.76S FOG
CRYSTAL        CLOUDY    66  59  78 N6        29.75F
BLAINE         PTSUNNY   64  64 100 N7        29.76F
EDEN PRAIRIE   CLOUDY    67  60  78 NE6       29.76R
SOUTH ST PAUL  CLOUDY    64  62  91 N5        29.76F
LAKE ELMO      PTSUNNY   64  63  94 NW7       29.78S
$$
MNZ001>005-007-008-013>017-022>024-027-028-282300-
   Northwest Minnesota

CITY           SKY/WX    TMP DP  RH WIND       PRES   REMARKS
BEMIDJI        CLOUDY    59  58  95 CALM      29.80S FOG
HALLOCK        PTSUNNY   70  59  68 N14       29.82S
ROSEAU         LGT RAIN  61  55  82 E15       29.84S
WARROAD        DRIZZLE   59  55  88 NE8       29.85S
THIEF RVR FALL CLOUDY    61  55  82 N12       29.84S
CROOKSTON      DRIZZLE   63  59  88 NE6       29.83F
FOSSTON        DRIZZLE   57  57 100 N7        29.82S
DETROIT LAKES  DRIZZLE   59  59 100 NE3       29.82F
MOORHEAD       CLOUDY    64  57  77 NE12      29.82S
PARK RAPIDS    CLOUDY    61  57  87 CALM      29.80S
MAHNOMEN       CLOUDY    59  58  96 N8        29.81F
$$
MNZ006-009>011-018-025>026-282300-
   North Central Minnesota

CITY           SKY/WX    TMP DP  RH WIND       PRES   REMARKS
BAUDETTE       RAIN      59  57  93 N10       29.82S FOG
FLAG ISLAND    CLOUDY    59  55  88 NE17      29.85R FOG
INTL FALLS     CLOUDY    60  58  92 NE7       29.80F FOG
WASKISH        CLOUDY    61  57  88 NE6       29.81S
BIG FORK       RAIN      61  59  94 N5        29.80R
LONGVILLE      CLOUDY    59  57  94 CALM      29.80R FOG
GRAND RAPIDS   CLOUDY    61  59  93 SE6       29.81R
CRANE LAKE     CLOUDY    59  57  94 CALM      29.81S
ORR            CLOUDY    61  57  88 CALM      29.77S
COOK           CLOUDY    61  61 100 CALM      29.80R FOG
WALKER         CLOUDY    59  57  93 S3        29.80S
$$
MNZ012-019>021-037-282300-
   Northeast Minnesota

CITY           SKY/WX    TMP DP  RH WIND       PRES   REMARKS
DULUTH         CLOUDY    57  53  86 E6        29.79R
ELY            CLOUDY    61  61 100 CALM      29.79S
HIBBING        CLOUDY    60  57  89 CALM      29.79R
EVELETH        CLOUDY    59  55  88 CALM      29.81R
DULUTH HARBOR  CLOUDY    48  46  93 NE7       29.82R
TWO HARBORS    LGT RAIN  59  54  82 CALM      29.78S
SILVER BAY     FOG       59  57  94 E3        29.79R VSB 1
GRAND MARAIS     N/A     48  46  93 E5        29.78S
G MARAIS ARPRT LGT RAIN  63  57  82 N6        29.82S
$$
MNZ029>031-032-039>041-046>048-054>057-064-282300-
   West Central Minnesota

CITY           SKY/WX    TMP DP  RH WIND       PRES   REMARKS
FERGUS FALLS   CLOUDY    64  55  72 NE6       29.77S
WHEATON        DRIZZLE   66  57  72 N5        29.82S
MORRIS         DRIZZLE   64  61  88 N10       29.79S
ALEXANDRIA     CLOUDY    61  57  87 NW6       29.81S
ELBOW LAKE     DRIZZLE   62  58  87 SE3       29.81S
WADENA         LGT RAIN  61  54  77 NW3       29.80S
GLENWOOD       CLOUDY    63  59  88 NW6       29.80F
APPLETON       CLOUDY    66  57  72 NW3       29.80R
BENSON         PTSUNNY   64  57  77 N6        29.80R
ORTONVILLE     CLOUDY    64  57  77 CALM      29.80S
MADISON        CLOUDY    64  59  82 N5        29.81R
WILLMAR        CLOUDY    66  61  82 N5        29.80S
$$
MNZ033>034-036-042>043-049>051-058-059-282300-
   Central Minnesota

CITY           SKY/WX    TMP DP  RH WIND       PRES   REMARKS
ST CLOUD       CLOUDY    63  59  87 N7        29.77F
SAUK CENTRE    CLOUDY    62  58  86 N3        29.79S
PAYNESVILLE    CLOUDY    64  60  88 N7        29.79S
AITKIN         MIX PCPN  63  57  82 CALM      29.78S
PINE RIVER     DRIZZLE   61  57  88 W3        29.83F
BRAINERD       CLOUDY    60  58  92 NW3       29.80S
STAPLES        DRIZZLE   59  57  94 NW5       29.79F
LONG PRAIRIE   PTSUNNY   61  57  88 W8        29.79F
LITTLE FALLS   CLOUDY    61  57  88 NW5       29.79S
LITCHFIELD     CLOUDY    66  63  88 NW7       29.78S
BUFFALO        CLOUDY    65  60  82 N5        29.78F
MAPLE LAKE     CLOUDY    65  61  87 N5        29.78S
HUTCHINSON     PTSUNNY   67  61  82 N6        29.79S
$$
MNZ037-044-045-052-053-282300-
   East Central Minnesota

CITY           SKY/WX    TMP DP  RH WIND       PRES   REMARKS
PRINCETON      CLOUDY    64  61  88 CALM      29.79R
MORA           CLOUDY    61  55  82 CALM      29.80S
CAMBRIDGE      LGT RAIN  66  55  68 NW3       29.76F
RUSH CITY      LGT RAIN  63  59  87 CALM      29.79R
MOOSE LAKE     CLOUDY    63  57  82 CALM      29.77R
HINCKLEY       LGT RAIN  63  59  88 CALM      29.79R
CLOQUET        LGT RAIN  63  55  77 CALM      29.79S
MCGREGOR       CLOUDY    61  57  88 CALM      29.80R
$$
MNZ071>073-080-081-089-090-097-098-282300-
   Southwest Minnesota

CITY           SKY/WX    TMP DP  RH WIND       PRES   REMARKS
MONTEVIDEO     CLOUDY    66  61  82 N6        29.82R
GRANITE FALLS  CLOUDY    66  60  79 NW6       29.81S
CANBY          CLOUDY    66  61  85 NW3       29.83R
MARSHALL       CLOUDY    64  58  80 N9        29.81R
REDWOOD FALLS  CLOUDY    65  60  84 N6        29.78S
OLIVIA         CLOUDY    70  63  78 NW9       29.78S
PIPESTONE      PTSUNNY   66  57  72 N10G16    29.80R
WINDOM         CLOUDY    64  59  82 CALM      29.79R
WORTHINGTON    LGT RAIN  65  60  84 N10       29.78R
JACKSON        LGT RAIN  64  59  82 VRB7      29.77S
TRACY          CLOUDY    66  61  84 N10       29.80S
SLAYTON        CLOUDY    64  60  88 N12       29.80S
$$
MNZ065>067-074>077-082>085-091>093-282300-
   South Central Minnesota

CITY           SKY/WX    TMP DP  RH WIND       PRES   REMARKS
MANKATO        CLOUDY    66  61  82 N8        29.77R
NEW ULM        CLOUDY    64  63  94 NW9       29.77S
ST JAMES       CLOUDY    63  57  82 N5        29.78R
FAIRMONT       CLOUDY    64  59  82 NE3       29.78R
GLENCOE        PTSUNNY   66  63  90 NW3       29.77S
FARIBAULT      CLOUDY    66  63  88 SE5       29.78R
OWATONNA       LGT RAIN  66  61  82 S7        29.78S
WASECA         CLOUDY    68  61  77 SW6       29.78R
ALBERT LEA     DRIZZLE   64  61  88 CALM      29.78F
$$
MNZ078>079-086>088-094>096-282300-
   Southeast Minnesota

CITY           SKY/WX    TMP DP  RH WIND       PRES   REMARKS
ROCHESTER      CLOUDY    66  58  75 W21       29.79R
RED WING       LGT RAIN  66  64  94 W6        29.76R
STANTON        RAIN      66  62  85 CALM      29.76S
DODGE CENTER   RAIN      61  59  94 W8        29.80R
WINONA         PTSUNNY   77  61  57 S3        29.75R
AUSTIN         MOSUNNY   64  57  77 W6        29.78F
PRESTON        CLOUDY    74  62  64 SW9       29.78R
$$
ABBREVIATIONS USED IN REMARKS
   TC - TEMPERATURES IN CELSIUS
  WCI - WIND CHILL INDEX
   HX - HEAT INDEX
  VSB - VISIBILITY
$$



USA.gov is the U.S. government's official web portal to all federal, state and local government web resources and services.